Time,TemperatureF,DewpointF,PressureIn,WindDirection,WindDirectionDegrees,WindSpeedMPH,WindSpeedGustMPH,Humidity,HourlyPrecipIn,Conditions,Clouds,dailyrainin,SoftwareType,DateUTC
2013-05-16 00:00:00,73.5,67.3,29.87,SE,137,0.0,5.0,81,0.00,,FEW045,0.01,VWS V14.01,2013-05-16 05:00:00,
2013-05-16 00:01:00,73.4,67.6,29.87,SSW,207,0.0,3.0,82,0.00,,OVC013,0.00,VWS V14.01,2013-05-16 05:01:00,
2013-05-16 00:06:00,73.4,67.6,29.86,NNW,336,1.0,3.0,82,0.00,,OVC013,0.00,VWS V14.01,2013-05-16 05:06:00,
2013-05-16 00:10:00,73.4,67.6,29.87,SSW,207,1.0,4.0,82,0.00,,FEW045,0.00,VWS V14.01,2013-05-16 05:10:00,
2013-05-16 00:11:00,73.4,67.2,29.86,NNW,346,5.0,5.0,81,0.00,,OVC013,0.00,VWS V14.01,2013-05-16 05:11:00,
2013-05-16 00:16:00,73.4,67.2,29.86,SSE,163,1.0,7.0,81,0.00,,OVC013,0.00,VWS V14.01,2013-05-16 05:16:00,
2013-05-16 00:20:00,73.4,67.6,29.86,NNW,336,1.0,3.0,82,0.00,,FEW045,0.00,VWS V14.01,2013-05-16 05:20:00,
2013-05-16 00:21:00,73.4,67.2,29.85,NNW,338,1.0,7.0,81,0.00,,OVC013,0.00,VWS V14.01,2013-05-16 05:21:00,
2013-05-16 00:26:00,73.4,67.2,29.85,SSW,205,1.0,7.0,81,0.00,,OVC013,0.00,VWS V14.01,2013-05-16 05:26:00,
2013-05-16 00:30:00,73.4,67.2,29.85,SSE,163,0.0,7.0,81,0.00,,FEW045,0.00,VWS V14.01,2013-05-16 05:30:00,
2013-05-16 00:31:00,73.4,67.2,29.85,SSW,212,0.0,4.0,81,0.00,,OVC013,0.00,VWS V14.01,2013-05-16 05:31:00,
2013-05-16 00:36:00,73.4,67.2,29.85,South,188,0.0,5.0,81,0.00,,OVC013,0.00,VWS V14.01,2013-05-16 05:36:00,
2013-05-16 00:40:00,73.4,67.2,29.85,SSW,205,0.0,7.0,81,0.00,,FEW045,0.00,VWS V14.01,2013-05-16 05:40:00,
2013-05-16 00:41:00,73.4,67.2,29.85,South,189,0.0,3.0,81,0.00,,OVC013,0.00,VWS V14.01,2013-05-16 05:41:00,
2013-05-16 00:46:00,73.4,67.2,29.85,NNW,348,0.0,3.0,81,0.00,,OVC013,0.00,VWS V14.01,2013-05-16 05:46:00,
2013-05-16 00:50:00,73.4,67.2,29.85,South,188,0.0,5.0,81,0.00,,FEW045,0.00,VWS V14.01,2013-05-16 05:50:00,
2013-05-16 00:51:00,73.4,67.2,29.86,NNW,346,0.0,3.0,81,0.00,,OVC013,0.00,VWS V14.01,2013-05-16 05:51:00,
2013-05-16 00:56:00,73.4,67.2,29.86,NNW,346,1.0,3.0,81,0.00,,OVC013,0.00,VWS V14.01,2013-05-16 05:56:00,
2013-05-16 01:00:00,73.4,67.2,29.86,NNW,346,0.0,3.0,81,0.00,,FEW045,0.00,VWS V14.01,2013-05-16 06:00:00,
2013-05-16 01:01:00,73.4,67.2,29.86,North,5,0.0,2.0,81,0.00,,OVC013,0.00,VWS V14.01,2013-05-16 06:01:00,
2013-05-16 01:06:00,73.4,67.2,29.86,North,5,0.0,2.0,81,0.00,,OVC013,0.00,VWS V14.01,2013-05-16 06:06:00,
2013-05-16 01:10:00,73.4,67.2,29.86,NNW,346,1.0,3.0,81,0.00,,FEW045,0.00,VWS V14.01,2013-05-16 06:10:00,
2013-05-16 01:11:00,73.2,67.0,29.86,SE,144,0.0,4.0,81,0.00,,OVC013,0.00,VWS V14.01,2013-05-16 06:11:00,
2013-05-16 01:16:00,73.2,67.0,29.86,SE,144,1.0,4.0,81,0.00,,OVC013,0.00,VWS V14.01,2013-05-16 06:16:00,
2013-05-16 01:20:00,73.4,67.2,29.86,North,5,1.0,2.0,81,0.00,,FEW045,0.00,VWS V14.01,2013-05-16 06:20:00,
2013-05-16 01:21:00,73.2,67.0,29.86,NNW,335,0.0,1.0,81,0.00,,OVC015,0.00,VWS V14.01,2013-05-16 06:21:00,
2013-05-16 01:26:00,73.2,67.0,29.86,NNW,347,0.0,3.0,81,0.00,,OVC015,0.00,VWS V14.01,2013-05-16 06:26:00,
2013-05-16 01:30:00,73.2,67.0,29.86,NNW,335,0.0,4.0,81,0.00,,FEW045,0.00,VWS V14.01,2013-05-16 06:30:00,
2013-05-16 01:31:00,73.0,66.8,29.86,SSW,199,0.0,4.0,81,0.00,,OVC015,0.00,VWS V14.01,2013-05-16 06:31:00,
2013-05-16 01:36:00,73.0,66.8,29.85,South,191,2.0,4.0,81,0.00,,OVC015,0.00,VWS V14.01,2013-05-16 06:36:00,
2013-05-16 01:40:00,73.2,67.0,29.86,NNW,347,2.0,3.0,81,0.00,,FEW045,0.00,VWS V14.01,2013-05-16 06:40:00,
2013-05-16 01:41:00,73.0,66.8,29.85,WSW,245,1.0,2.0,81,0.00,,OVC015,0.00,VWS V14.01,2013-05-16 06:41:00,
2013-05-16 01:46:00,72.8,66.6,29.85,SW,223,0.0,2.0,81,0.00,,OVC015,0.00,VWS V14.01,2013-05-16 06:46:00,
2013-05-16 01:50:00,73.0,66.8,29.85,WSW,245,0.0,4.0,81,0.00,,FEW045,0.00,VWS V14.01,2013-05-16 06:50:00,
2013-05-16 01:51:00,72.8,66.6,29.86,WNW,300,0.0,4.0,81,0.00,,OVC015,0.00,VWS V14.01,2013-05-16 06:51:00,
2013-05-16 01:56:00,72.8,66.6,29.86,WNW,300,0.0,4.0,81,0.00,,OVC015,0.00,VWS V14.01,2013-05-16 06:56:00,
2013-05-16 02:00:00,72.8,66.6,29.86,SW,223,0.0,2.0,81,0.00,,FEW045,0.00,VWS V14.01,2013-05-16 07:00:00,
2013-05-16 02:01:00,72.7,66.5,29.86,WNW,300,0.0,3.0,81,0.00,,OVC015,0.00,VWS V14.01,2013-05-16 07:01:00,
2013-05-16 02:06:00,72.7,66.9,29.84,WNW,300,0.0,3.0,82,0.00,,OVC015,0.00,VWS V14.01,2013-05-16 07:06:00,
2013-05-16 02:10:00,72.8,66.6,29.86,WNW,300,0.0,4.0,81,0.00,,FEW045,0.00,VWS V14.01,2013-05-16 07:10:00,
2013-05-16 02:11:00,72.7,66.9,29.84,WNW,300,0.0,2.0,82,0.00,,OVC015,0.00,VWS V14.01,2013-05-16 07:11:00,
2013-05-16 02:16:00,72.5,66.7,29.84,WNW,298,2.0,2.0,82,0.00,,OVC015,0.00,VWS V14.01,2013-05-16 07:16:00,
2013-05-16 02:20:00,72.7,66.9,29.84,WNW,300,0.0,3.0,82,0.00,,FEW045,0.00,VWS V14.01,2013-05-16 07:20:00,
2013-05-16 02:21:00,72.5,66.3,29.84,SSW,198,0.0,3.0,81,0.00,,OVC013,0.00,VWS V14.01,2013-05-16 07:21:00,
2013-05-16 02:26:00,72.5,66.7,29.84,SSE,152,4.0,5.0,82,0.00,,OVC013,0.00,VWS V14.01,2013-05-16 07:26:00,
2013-05-16 02:30:00,72.5,66.3,29.84,SSW,211,0.0,2.0,81,0.00,,FEW045,0.00,VWS V14.01,2013-05-16 07:30:00,
2013-05-16 02:31:00,72.3,66.5,29.84,West,265,0.0,2.0,82,0.00,,OVC013,0.00,VWS V14.01,2013-05-16 07:31:00,
2013-05-16 02:36:00,72.3,66.5,29.84,SSW,212,2.0,3.0,82,0.00,,OVC013,0.00,VWS V14.01,2013-05-16 07:36:00,
2013-05-16 02:40:00,72.3,66.5,29.84,NNW,337,0.0,5.0,82,0.00,,FEW045,0.00,VWS V14.01,2013-05-16 07:40:00,
2013-05-16 02:41:00,72.3,66.5,29.84,SSW,211,0.0,2.0,82,0.00,,OVC013,0.00,VWS V14.01,2013-05-16 07:41:00,
2013-05-16 02:46:00,72.2,66.4,29.84,ENE,66,0.0,2.0,82,0.00,,OVC013,0.00,VWS V14.01,2013-05-16 07:46:00,
2013-05-16 02:50:00,72.3,66.5,29.84,SSW,211,0.0,4.0,82,0.00,,FEW045,0.00,VWS V14.01,2013-05-16 07:50:00,
2013-05-16 02:51:00,72.2,66.4,29.83,WNW,300,0.0,3.0,82,0.00,,OVC013,0.00,VWS V14.01,2013-05-16 07:51:00,
2013-05-16 02:56:00,72.2,66.4,29.83,WNW,300,0.0,3.0,82,0.00,,OVC013,0.00,VWS V14.01,2013-05-16 07:56:00,
2013-05-16 03:00:00,72.2,66.4,29.83,WNW,300,0.0,3.0,82,0.00,,FEW045,0.00,VWS V14.01,2013-05-16 08:00:00,
2013-05-16 03:01:00,72.2,66.4,29.83,NNW,335,0.0,4.0,82,0.00,,OVC013,0.00,VWS V14.01,2013-05-16 08:01:00,
2013-05-16 03:06:00,72.2,66.4,29.83,NW,325,2.0,4.0,82,0.00,,OVC013,0.00,VWS V14.01,2013-05-16 08:06:00,
2013-05-16 03:10:00,72.2,66.8,29.83,WNW,300,0.0,3.0,83,0.00,,FEW045,0.00,VWS V14.01,2013-05-16 08:10:00,
2013-05-16 03:11:00,72.0,66.2,29.83,NW,325,0.0,1.0,82,0.00,,OVC013,0.00,VWS V14.01,2013-05-16 08:11:00,
2013-05-16 03:16:00,72.0,66.2,29.83,NW,325,0.0,1.0,82,0.00,,OVC013,0.00,VWS V14.01,2013-05-16 08:16:00,
2013-05-16 03:20:00,72.2,66.4,29.83,NW,325,0.0,4.0,82,0.00,,FEW045,0.00,VWS V14.01,2013-05-16 08:20:00,
2013-05-16 03:21:00,72.0,66.2,29.83,NW,325,0.0,3.0,82,0.00,,OVC013,0.00,VWS V14.01,2013-05-16 08:21:00,
2013-05-16 03:26:00,72.0,66.2,29.83,NW,325,0.0,3.0,82,0.00,,OVC013,0.00,VWS V14.01,2013-05-16 08:26:00,
2013-05-16 03:30:00,72.0,66.2,29.83,NW,325,0.0,1.0,82,0.00,,FEW045,0.00,VWS V14.01,2013-05-16 08:30:00,
2013-05-16 03:31:00,72.0,66.2,29.83,NW,325,0.0,2.0,82,0.00,,OVC013,0.00,VWS V14.01,2013-05-16 08:31:00,
2013-05-16 03:36:00,72.0,66.6,29.83,NW,325,0.0,3.0,83,0.00,,OVC013,0.00,VWS V14.01,2013-05-16 08:36:00,
2013-05-16 03:40:00,72.0,66.2,29.83,NW,325,0.0,3.0,82,0.00,,FEW045,0.00,VWS V14.01,2013-05-16 08:40:00,
2013-05-16 03:41:00,72.0,66.6,29.83,NW,325,0.0,1.0,83,0.00,,OVC013,0.00,VWS V14.01,2013-05-16 08:41:00,
2013-05-16 03:46:00,72.0,66.6,29.83,NW,325,0.0,2.0,83,0.00,,OVC013,0.00,VWS V14.01,2013-05-16 08:46:00,
2013-05-16 03:50:00,72.0,66.2,29.83,NW,325,0.0,3.0,82,0.00,,FEW045,0.00,VWS V14.01,2013-05-16 08:50:00,
2013-05-16 03:51:00,72.0,66.6,29.83,NW,325,2.0,4.0,83,0.00,,OVC013,0.00,VWS V14.01,2013-05-16 08:51:00,
2013-05-16 03:56:00,72.0,66.6,29.83,NW,325,0.0,4.0,83,0.00,,OVC013,0.00,VWS V14.01,2013-05-16 08:56:00,
2013-05-16 04:00:00,72.0,66.6,29.83,NW,325,0.0,2.0,83,0.00,,FEW045,0.00,VWS V14.01,2013-05-16 09:00:00,
2013-05-16 04:01:00,72.0,66.6,29.83,NW,325,0.0,2.0,83,0.00,,OVC013,0.00,VWS V14.01,2013-05-16 09:01:00,
2013-05-16 04:06:00,72.2,66.8,29.83,NW,325,0.0,2.0,83,0.00,,OVC013,0.00,VWS V14.01,2013-05-16 09:06:00,
2013-05-16 04:10:00,72.0,66.6,29.83,NW,325,2.0,4.0,83,0.00,,FEW045,0.00,VWS V14.01,2013-05-16 09:10:00,
2013-05-16 04:11:00,72.2,66.8,29.83,NW,325,0.0,1.0,83,0.00,,OVC013,0.00,VWS V14.01,2013-05-16 09:11:00,
2013-05-16 04:16:00,72.2,66.8,29.83,NW,325,0.0,1.0,83,0.00,,OVC013,0.00,VWS V14.01,2013-05-16 09:16:00,
2013-05-16 04:20:00,72.2,66.8,29.83,NW,325,0.0,2.0,83,0.00,,FEW045,0.00,VWS V14.01,2013-05-16 09:20:00,
2013-05-16 04:21:00,72.2,66.8,29.83,NW,325,0.0,1.0,83,0.00,,OVC013,0.00,VWS V14.01,2013-05-16 09:21:00,
2013-05-16 04:26:00,72.2,66.8,29.83,NW,325,0.0,2.0,83,0.00,,OVC013,0.00,VWS V14.01,2013-05-16 09:26:00,
2013-05-16 04:30:00,72.2,66.8,29.83,NW,325,0.0,1.0,83,0.00,,FEW045,0.00,VWS V14.01,2013-05-16 09:30:00,
2013-05-16 04:31:00,72.2,66.8,29.83,NW,325,0.0,2.0,83,0.00,,OVC013,0.00,VWS V14.01,2013-05-16 09:31:00,
2013-05-16 04:36:00,72.2,66.8,29.83,NW,325,0.0,2.0,83,0.00,,OVC013,0.00,VWS V14.01,2013-05-16 09:36:00,
2013-05-16 04:40:00,72.2,66.8,29.83,NW,325,0.0,2.0,83,0.00,,FEW045,0.00,VWS V14.01,2013-05-16 09:40:00,
2013-05-16 04:41:00,72.2,66.8,29.83,NW,325,0.0,1.0,83,0.00,,OVC013,0.00,VWS V14.01,2013-05-16 09:41:00,
2013-05-16 04:46:00,72.2,66.8,29.83,NW,325,0.0,1.0,83,0.00,,OVC013,0.00,VWS V14.01,2013-05-16 09:46:00,
2013-05-16 04:50:00,72.2,66.8,29.83,NW,325,0.0,2.0,83,0.00,,FEW045,0.00,VWS V14.01,2013-05-16 09:50:00,
2013-05-16 04:51:00,72.2,66.8,29.84,NW,325,0.0,0.0,83,0.00,,OVC013,0.00,VWS V14.01,2013-05-16 09:51:00,
2013-05-16 04:56:00,72.0,66.6,29.84,NW,325,0.0,0.0,83,0.00,,OVC013,0.00,VWS V14.01,2013-05-16 09:56:00,
2013-05-16 05:00:00,72.2,66.8,29.84,NW,325,0.0,1.0,83,0.00,,FEW045,0.00,VWS V14.01,2013-05-16 10:00:00,
2013-05-16 05:01:00,72.0,66.2,29.84,NW,325,0.0,0.0,82,0.00,,OVC013,0.00,VWS V14.01,2013-05-16 10:01:00,
2013-05-16 05:06:00,72.0,66.2,29.85,NW,325,0.0,0.0,82,0.00,,OVC013,0.00,VWS V14.01,2013-05-16 10:06:00,
2013-05-16 05:10:00,72.0,66.6,29.84,NW,325,0.0,0.0,83,0.00,,FEW045,0.00,VWS V14.01,2013-05-16 10:10:00,
2013-05-16 05:11:00,72.2,66.4,29.85,NW,325,0.0,0.0,82,0.00,,OVC016,0.00,VWS V14.01,2013-05-16 10:11:00,
2013-05-16 05:16:00,72.2,66.4,29.85,NW,325,0.0,1.0,82,0.00,,OVC016,0.00,VWS V14.01,2013-05-16 10:16:00,
2013-05-16 05:20:00,72.0,66.2,29.85,NW,325,0.0,0.0,82,0.00,,FEW045,0.00,VWS V14.01,2013-05-16 10:20:00,
2013-05-16 05:21:00,72.0,66.2,29.86,NW,325,0.0,1.0,82,0.00,,OVC016,0.00,VWS V14.01,2013-05-16 10:21:00,
2013-05-16 05:26:00,72.0,66.2,29.86,NW,325,0.0,1.0,82,0.00,,OVC016,0.00,VWS V14.01,2013-05-16 10:26:00,
2013-05-16 05:30:00,72.2,66.4,29.86,NW,325,0.0,1.0,82,0.00,,FEW045,0.00,VWS V14.01,2013-05-16 10:30:00,
2013-05-16 05:31:00,72.0,66.2,29.86,NW,325,0.0,0.0,82,0.00,,OVC016,0.00,VWS V14.01,2013-05-16 10:31:00,
2013-05-16 05:36:00,72.0,66.2,29.84,NW,325,0.0,0.0,82,0.00,,OVC016,0.00,VWS V14.01,2013-05-16 10:36:00,
2013-05-16 05:40:00,72.0,66.2,29.86,NW,325,0.0,1.0,82,0.00,,FEW045,0.00,VWS V14.01,2013-05-16 10:40:00,
2013-05-16 05:41:00,72.0,66.2,29.84,NW,325,0.0,1.0,82,0.00,,OVC016,0.00,VWS V14.01,2013-05-16 10:41:00,
2013-05-16 05:46:00,72.0,66.2,29.84,NW,325,0.0,1.0,82,0.00,,OVC016,0.00,VWS V14.01,2013-05-16 10:46:00,
2013-05-16 05:50:00,72.0,66.2,29.84,NW,325,0.0,0.0,82,0.00,,FEW045,0.00,VWS V14.01,2013-05-16 10:50:00,
2013-05-16 05:51:00,72.0,66.2,29.84,NW,325,1.0,4.0,82,0.00,,OVC016,0.00,VWS V14.01,2013-05-16 10:51:00,
2013-05-16 05:56:00,72.0,66.2,29.84,NW,325,0.0,4.0,82,0.00,,OVC016,0.00,VWS V14.01,2013-05-16 10:56:00,
2013-05-16 06:00:00,72.0,66.2,29.84,NW,325,0.0,1.0,82,0.00,,FEW045,0.00,VWS V14.01,2013-05-16 11:00:00,
2013-05-16 06:01:00,72.0,66.2,29.84,NW,325,0.0,0.0,82,0.00,,OVC016,0.00,VWS V14.01,2013-05-16 11:01:00,
2013-05-16 06:06:00,71.8,66.0,29.84,NW,325,0.0,0.0,82,0.00,,OVC020,0.00,VWS V14.01,2013-05-16 11:06:00,
2013-05-16 06:10:00,72.0,65.9,29.84,NW,325,0.0,4.0,81,0.00,,FEW045,0.00,VWS V14.01,2013-05-16 11:10:00,
2013-05-16 06:11:00,71.8,66.0,29.84,NW,325,0.0,0.0,82,0.00,,OVC020,0.00,VWS V14.01,2013-05-16 11:11:00,
2013-05-16 06:16:00,71.8,66.0,29.84,NW,325,0.0,1.0,82,0.00,,OVC020,0.00,VWS V14.01,2013-05-16 11:16:00,
2013-05-16 06:20:00,71.8,66.0,29.84,NW,325,0.0,0.0,82,0.00,,FEW045,0.00,VWS V14.01,2013-05-16 11:20:00,
2013-05-16 06:21:00,71.8,66.0,29.84,NW,325,0.0,3.0,82,0.00,,OVC020,0.00,VWS V14.01,2013-05-16 11:21:00,
2013-05-16 06:26:00,71.8,66.0,29.84,NW,325,0.0,3.0,82,0.00,,OVC020,0.00,VWS V14.01,2013-05-16 11:26:00,
2013-05-16 06:30:00,71.8,66.0,29.84,NW,325,0.0,1.0,82,0.00,,FEW045,0.00,VWS V14.01,2013-05-16 11:30:00,
2013-05-16 06:31:00,71.6,65.8,29.84,NW,325,0.0,0.0,82,0.00,,OVC020,0.00,VWS V14.01,2013-05-16 11:31:00,
2013-05-16 06:36:00,71.6,65.8,29.84,NW,325,0.0,0.0,82,0.00,,OVC020,0.00,VWS V14.01,2013-05-16 11:36:00,
2013-05-16 06:40:00,71.8,66.0,29.84,NW,325,0.0,3.0,82,0.00,,FEW045,0.00,VWS V14.01,2013-05-16 11:40:00,
2013-05-16 06:41:00,71.6,65.8,29.84,NW,325,0.0,0.0,82,0.00,,OVC020,0.00,VWS V14.01,2013-05-16 11:41:00,
2013-05-16 06:46:00,71.6,65.8,29.84,NW,325,0.0,0.0,82,0.00,,OVC020,0.00,VWS V14.01,2013-05-16 11:46:00,
2013-05-16 06:50:00,71.6,65.8,29.84,NW,325,0.0,0.0,82,0.00,,FEW045,0.00,VWS V14.01,2013-05-16 11:50:00,
2013-05-16 06:51:00,71.6,65.8,29.84,NW,325,0.0,0.0,82,0.00,,OVC020,0.00,VWS V14.01,2013-05-16 11:51:00,
2013-05-16 06:56:00,71.5,65.7,29.84,NW,325,1.0,1.0,82,0.00,,OVC020,0.00,VWS V14.01,2013-05-16 11:56:00,
2013-05-16 07:00:00,71.6,65.8,29.84,NW,325,0.0,1.0,82,0.00,,FEW045,0.00,VWS V14.01,2013-05-16 12:00:00,
2013-05-16 07:01:00,71.5,65.7,29.84,NW,325,0.0,0.0,82,0.00,,OVC020,0.00,VWS V14.01,2013-05-16 12:01:00,
2013-05-16 07:06:00,71.5,65.7,29.85,NW,325,0.0,0.0,82,0.00,,OVC022,0.00,VWS V14.01,2013-05-16 12:06:00,
2013-05-16 07:10:00,71.5,65.7,29.84,NW,325,0.0,1.0,82,0.00,,FEW045,0.00,VWS V14.01,2013-05-16 12:10:00,
2013-05-16 07:11:00,71.5,65.7,29.85,NW,325,0.0,1.0,82,0.00,,OVC022,0.00,VWS V14.01,2013-05-16 12:11:00,
2013-05-16 07:16:00,71.5,65.7,29.85,NW,325,0.0,1.0,82,0.00,,OVC022,0.00,VWS V14.01,2013-05-16 12:16:00,
2013-05-16 07:20:00,71.5,65.7,29.85,NW,325,0.0,0.0,82,0.00,,FEW045,0.00,VWS V14.01,2013-05-16 12:20:00,
2013-05-16 07:21:00,71.5,66.1,29.85,NW,325,0.0,0.0,83,0.00,,OVC022,0.00,VWS V14.01,2013-05-16 12:21:00,
2013-05-16 07:26:00,71.5,66.1,29.85,NW,325,0.0,1.0,83,0.00,,OVC022,0.00,VWS V14.01,2013-05-16 12:26:00,
2013-05-16 07:30:00,71.5,65.7,29.85,NW,325,0.0,1.0,82,0.00,,FEW045,0.00,VWS V14.01,2013-05-16 12:30:00,
2013-05-16 07:31:00,71.6,66.2,29.85,NW,325,0.0,1.0,83,0.00,,OVC022,0.00,VWS V14.01,2013-05-16 12:31:00,
2013-05-16 07:36:00,71.5,66.1,29.84,NW,325,0.0,1.0,83,0.00,,OVC022,0.00,VWS V14.01,2013-05-16 12:36:00,
2013-05-16 07:40:00,71.5,66.1,29.85,NW,325,0.0,1.0,83,0.00,,FEW045,0.00,VWS V14.01,2013-05-16 12:40:00,
2013-05-16 07:41:00,71.5,66.4,29.84,NW,325,0.0,1.0,84,0.00,,OVC022,0.00,VWS V14.01,2013-05-16 12:41:00,
2013-05-16 07:46:00,71.3,66.2,29.84,NW,325,0.0,1.0,84,0.00,,OVC022,0.00,VWS V14.01,2013-05-16 12:46:00,
2013-05-16 07:50:00,71.5,66.1,29.84,NW,325,0.0,1.0,83,0.00,,FEW045,0.00,VWS V14.01,2013-05-16 12:50:00,
2013-05-16 07:51:00,71.3,66.2,29.85,NW,325,0.0,1.0,84,0.00,,OVC022,0.00,VWS V14.01,2013-05-16 12:51:00,
2013-05-16 07:56:00,71.1,66.4,29.85,NW,325,0.0,1.0,85,0.00,,OVC022,0.00,VWS V14.01,2013-05-16 12:56:00,
2013-05-16 08:00:00,71.3,66.2,29.85,NW,325,0.0,1.0,84,0.00,,FEW045,0.00,VWS V14.01,2013-05-16 13:00:00,
2013-05-16 08:01:00,71.1,66.4,29.85,NW,325,0.0,1.0,85,0.00,,OVC022,0.00,VWS V14.01,2013-05-16 13:01:00,
2013-05-16 08:06:00,71.1,66.4,29.85,NW,325,0.0,1.0,85,0.00,,OVC022,0.00,VWS V14.01,2013-05-16 13:06:00,
2013-05-16 08:10:00,71.1,66.4,29.85,NW,325,0.0,1.0,85,0.00,,FEW045,0.00,VWS V14.01,2013-05-16 13:10:00,
2013-05-16 08:11:00,71.1,66.4,29.85,NW,325,0.0,1.0,85,0.00,,OVC022,0.00,VWS V14.01,2013-05-16 13:11:00,
2013-05-16 08:16:00,71.1,66.4,29.85,NW,306,0.0,6.0,85,0.00,,OVC022,0.00,VWS V14.01,2013-05-16 13:16:00,
2013-05-16 08:20:00,71.1,66.4,29.85,NW,325,0.0,1.0,85,0.00,,FEW045,0.00,VWS V14.01,2013-05-16 13:20:00,
2013-05-16 08:21:00,71.1,66.4,29.85,NW,306,0.0,3.0,85,0.00,,OVC022,0.00,VWS V14.01,2013-05-16 13:21:00,
2013-05-16 08:26:00,71.3,66.6,29.85,NW,306,0.0,3.0,85,0.00,,OVC022,0.00,VWS V14.01,2013-05-16 13:26:00,
2013-05-16 08:30:00,71.1,66.4,29.85,NW,306,0.0,6.0,85,0.00,,FEW045,0.00,VWS V14.01,2013-05-16 13:30:00,
2013-05-16 08:31:00,71.5,66.8,29.85,NW,306,0.0,1.0,85,0.00,,OVC022,0.00,VWS V14.01,2013-05-16 13:31:00,
2013-05-16 08:36:00,71.5,66.4,29.85,NW,306,0.0,1.0,84,0.00,,OVC022,0.00,VWS V14.01,2013-05-16 13:36:00,
2013-05-16 08:40:00,71.3,66.6,29.85,NW,306,0.0,3.0,85,0.00,,FEW045,0.00,VWS V14.01,2013-05-16 13:40:00,
2013-05-16 08:41:00,71.5,66.4,29.85,NW,306,0.0,1.0,84,0.00,,OVC022,0.00,VWS V14.01,2013-05-16 13:41:00,
2013-05-16 08:46:00,71.6,66.5,29.85,NW,306,0.0,2.0,84,0.00,,OVC022,0.00,VWS V14.01,2013-05-16 13:46:00,
2013-05-16 08:50:00,71.5,66.4,29.85,NW,306,0.0,2.0,84,0.00,,FEW045,0.00,VWS V14.01,2013-05-16 13:50:00,
2013-05-16 08:51:00,71.6,66.5,29.85,NW,306,1.0,1.0,84,0.00,,OVC022,0.00,VWS V14.01,2013-05-16 13:51:00,
2013-05-16 08:56:00,71.8,66.7,29.85,NW,306,0.0,1.0,84,0.00,,OVC022,0.00,VWS V14.01,2013-05-16 13:56:00,
2013-05-16 09:00:00,71.6,66.5,29.85,NW,306,0.0,2.0,84,0.00,,FEW045,0.00,VWS V14.01,2013-05-16 14:00:00,
2013-05-16 09:01:00,71.8,66.4,29.85,North,5,0.0,0.0,83,0.00,,OVC022,0.00,VWS V14.01,2013-05-16 14:01:00,
2013-05-16 09:06:00,72.0,66.6,29.85,West,261,4.0,5.0,83,0.00,,OVC016,0.00,VWS V14.01,2013-05-16 14:06:00,
2013-05-16 09:10:00,71.8,66.7,29.85,North,5,0.0,3.0,84,0.00,,FEW045,0.00,VWS V14.01,2013-05-16 14:10:00,
2013-05-16 09:11:00,72.0,66.6,29.85,West,261,0.0,0.0,83,0.00,,OVC016,0.00,VWS V14.01,2013-05-16 14:11:00,
2013-05-16 09:16:00,72.0,66.6,29.85,West,261,0.0,2.0,83,0.00,,OVC016,0.00,VWS V14.01,2013-05-16 14:16:00,
2013-05-16 09:20:00,72.0,66.6,29.85,West,261,0.0,5.0,83,0.00,,FEW045,0.00,VWS V14.01,2013-05-16 14:20:00,
2013-05-16 09:21:00,72.2,66.8,29.85,NW,318,0.0,3.0,83,0.00,,OVC016,0.00,VWS V14.01,2013-05-16 14:21:00,
2013-05-16 09:26:00,72.3,66.5,29.85,NW,318,0.0,3.0,82,0.00,,OVC016,0.00,VWS V14.01,2013-05-16 14:26:00,
2013-05-16 09:30:00,72.2,66.8,29.85,SW,222,1.0,2.0,83,0.00,,FEW045,0.00,VWS V14.01,2013-05-16 14:30:00,
2013-05-16 09:31:00,72.5,67.1,29.85,NW,318,0.0,0.0,83,0.00,,OVC016,0.00,VWS V14.01,2013-05-16 14:31:00,
2013-05-16 09:36:00,72.7,66.9,29.84,NNE,19,0.0,4.0,82,0.00,,OVC016,0.00,VWS V14.01,2013-05-16 14:36:00,
2013-05-16 09:40:00,72.3,66.5,29.85,NW,318,0.0,3.0,82,0.00,,FEW045,0.00,VWS V14.01,2013-05-16 14:40:00,
2013-05-16 09:41:00,72.8,67.0,29.84,NNE,19,0.0,1.0,82,0.00,,OVC016,0.00,VWS V14.01,2013-05-16 14:41:00,
2013-05-16 09:46:00,73.0,67.2,29.84,NNE,19,0.0,2.0,82,0.00,,OVC016,0.00,VWS V14.01,2013-05-16 14:46:00,
2013-05-16 09:50:00,72.7,66.9,29.84,NNE,19,0.0,4.0,82,0.00,,FEW045,0.00,VWS V14.01,2013-05-16 14:50:00,
2013-05-16 09:51:00,73.0,66.8,29.85,NNE,19,0.0,1.0,81,0.00,,OVC016,0.00,VWS V14.01,2013-05-16 14:51:00,
2013-05-16 09:56:00,73.2,66.7,29.85,ESE,121,0.0,4.0,80,0.00,,OVC016,0.00,VWS V14.01,2013-05-16 14:56:00,
2013-05-16 10:00:00,73.0,66.8,29.85,NNE,19,0.0,2.0,81,0.00,,FEW045,0.00,VWS V14.01,2013-05-16 15:00:00,
2013-05-16 10:01:00,73.4,66.9,29.85,SE,140,2.0,2.0,80,0.00,,OVC016,0.00,VWS V14.01,2013-05-16 15:01:00,
2013-05-16 10:06:00,73.5,67.0,29.84,WNW,288,0.0,2.0,80,0.00,,OVC016,0.00,VWS V14.01,2013-05-16 15:06:00,
2013-05-16 10:10:00,73.2,67.0,29.85,ESE,121,0.0,4.0,81,0.00,,FEW045,0.00,VWS V14.01,2013-05-16 15:10:00,
2013-05-16 10:11:00,73.7,66.8,29.84,WSW,255,0.0,2.0,79,0.00,,OVC016,0.00,VWS V14.01,2013-05-16 15:11:00,
2013-05-16 10:16:00,74.1,67.5,29.84,WSW,256,1.0,2.0,80,0.00,,OVC016,0.00,VWS V14.01,2013-05-16 15:16:00,
2013-05-16 10:20:00,73.5,66.6,29.84,WSW,255,2.0,2.0,79,0.00,,FEW045,0.00,VWS V14.01,2013-05-16 15:20:00,
2013-05-16 10:21:00,74.2,66.9,29.84,WSW,256,0.0,1.0,78,0.00,,OVC016,0.00,VWS V14.01,2013-05-16 15:21:00,
2013-05-16 10:26:00,74.6,67.7,29.84,WSW,255,0.0,1.0,79,0.00,,OVC016,0.00,VWS V14.01,2013-05-16 15:26:00,
2013-05-16 10:30:00,74.1,67.2,29.84,WSW,256,0.0,2.0,79,0.00,,FEW045,0.00,VWS V14.01,2013-05-16 15:30:00,
2013-05-16 10:31:00,74.8,67.1,29.84,WNW,284,0.0,3.0,77,0.00,,OVC016,0.00,VWS V14.01,2013-05-16 15:31:00,
2013-05-16 10:36:00,74.9,67.2,29.84,WNW,284,0.0,3.0,77,0.00,,OVC016,0.00,VWS V14.01,2013-05-16 15:36:00,
2013-05-16 10:40:00,74.6,67.3,29.84,South,187,0.0,2.0,78,0.00,,FEW045,0.00,VWS V14.01,2013-05-16 15:40:00,
2013-05-16 10:41:00,75.3,67.6,29.84,NW,325,2.0,2.0,77,0.00,,OVC016,0.00,VWS V14.01,2013-05-16 15:41:00,
2013-05-16 10:46:00,75.5,67.0,29.84,South,191,0.0,4.0,75,0.00,,OVC016,0.00,VWS V14.01,2013-05-16 15:46:00,
2013-05-16 10:50:00,75.1,67.4,29.84,SSW,211,2.0,3.0,77,0.00,,FEW045,0.00,VWS V14.01,2013-05-16 15:50:00,
2013-05-16 10:51:00,75.8,67.7,29.84,South,191,0.0,1.0,76,0.00,,OVC016,0.00,VWS V14.01,2013-05-16 15:51:00,
2013-05-16 10:56:00,76.2,67.7,29.84,South,191,0.0,1.0,75,0.00,,OVC016,0.00,VWS V14.01,2013-05-16 15:56:00,
2013-05-16 11:00:00,75.5,67.0,29.84,South,191,0.0,4.0,75,0.00,,FEW045,0.00,VWS V14.01,2013-05-16 16:00:00,
2013-05-16 11:01:00,76.3,67.4,29.84,SW,217,0.0,5.0,74,0.00,,OVC016,0.00,VWS V14.01,2013-05-16 16:01:00,
2013-05-16 11:06:00,76.5,67.6,29.84,West,264,0.0,5.0,74,0.00,,OVC018,0.00,VWS V14.01,2013-05-16 16:06:00,
2013-05-16 11:10:00,76.2,67.7,29.84,South,191,0.0,1.0,75,0.00,,FEW045,0.00,VWS V14.01,2013-05-16 16:10:00,
2013-05-16 11:11:00,76.7,67.8,29.84,WSW,257,0.0,2.0,74,0.00,,OVC018,0.00,VWS V14.01,2013-05-16 16:11:00,
2013-05-16 11:16:00,77.1,68.2,29.84,SW,225,0.0,2.0,74,0.00,,OVC018,0.00,VWS V14.01,2013-05-16 16:16:00,
2013-05-16 11:20:00,76.5,67.6,29.84,WSW,257,0.0,5.0,74,0.00,,FEW045,0.00,VWS V14.01,2013-05-16 16:20:00,
2013-05-16 11:21:00,77.4,68.5,29.83,SE,142,0.0,1.0,74,0.00,,OVC018,0.00,VWS V14.01,2013-05-16 16:21:00,
2013-05-16 11:26:00,78.1,69.1,29.83,West,265,1.0,5.0,74,0.00,,OVC018,0.00,VWS V14.01,2013-05-16 16:26:00,
2013-05-16 11:30:00,77.1,67.8,29.83,SW,225,0.0,2.0,73,0.00,,FEW045,0.00,VWS V14.01,2013-05-16 16:30:00,
2013-05-16 11:31:00,78.7,68.9,29.83,West,266,0.0,3.0,72,0.00,,OVC018,0.00,VWS V14.01,2013-05-16 16:31:00,
2013-05-16 11:36:00,79.1,68.9,29.83,SSW,195,0.0,4.0,71,0.00,,OVC018,0.00,VWS V14.01,2013-05-16 16:36:00,
2013-05-16 11:40:00,78.3,68.9,29.83,West,265,0.0,5.0,73,0.00,,FEW045,0.00,VWS V14.01,2013-05-16 16:40:00,
2013-05-16 11:41:00,79.3,68.7,29.83,SSW,196,0.0,0.0,70,0.00,,OVC018,0.00,VWS V14.01,2013-05-16 16:41:00,
2013-05-16 11:46:00,79.8,68.7,29.83,SSW,196,0.0,3.0,69,0.00,,OVC018,0.00,VWS V14.01,2013-05-16 16:46:00,
2013-05-16 11:50:00,79.1,68.5,29.83,SSW,195,0.0,4.0,70,0.00,,FEW045,0.00,VWS V14.01,2013-05-16 16:50:00,
2013-05-16 11:51:00,80.7,69.2,29.83,NNW,333,0.0,3.0,68,0.00,,OVC018,0.00,VWS V14.01,2013-05-16 16:51:00,
2013-05-16 11:56:00,81.7,69.2,29.83,NNW,333,0.0,3.0,66,0.00,,OVC018,0.00,VWS V14.01,2013-05-16 16:56:00,
2013-05-16 12:00:00,80.0,69.3,29.83,SSW,196,1.0,3.0,70,0.00,,FEW045,0.00,VWS V14.01,2013-05-16 17:00:00,
2013-05-16 12:01:00,82.3,69.8,29.83,NW,323,0.0,2.0,66,0.00,,OVC018,0.00,VWS V14.01,2013-05-16 17:01:00,
2013-05-16 12:06:00,82.7,70.6,29.83,NW,323,1.0,2.0,67,0.00,,BKN024,0.00,VWS V14.01,2013-05-16 17:06:00,
2013-05-16 12:10:00,81.9,69.9,29.83,NW,323,0.0,3.0,67,0.00,,FEW045,0.00,VWS V14.01,2013-05-16 17:10:00,
2013-05-16 12:11:00,83.1,70.1,29.83,NNW,340,0.0,1.0,65,0.00,,BKN024,0.00,VWS V14.01,2013-05-16 17:11:00,
2013-05-16 12:16:00,83.6,70.1,29.83,NNW,340,0.0,2.0,64,0.00,,BKN024,0.00,VWS V14.01,2013-05-16 17:16:00,
2013-05-16 12:20:00,82.9,70.4,29.83,NW,323,0.0,2.0,66,0.00,,FEW045,0.00,VWS V14.01,2013-05-16 17:20:00,
2013-05-16 12:21:00,84.2,71.2,29.82,NNW,327,0.0,2.0,65,0.00,,BKN024,0.00,VWS V14.01,2013-05-16 17:21:00,
2013-05-16 12:26:00,84.6,69.2,29.82,East,80,2.0,5.0,60,0.00,,BKN024,0.00,VWS V14.01,2013-05-16 17:26:00,
2013-05-16 12:30:00,83.6,68.7,29.82,NNW,327,0.0,3.0,61,0.00,,FEW045,0.00,VWS V14.01,2013-05-16 17:30:00,
2013-05-16 12:31:00,84.6,70.2,29.81,NNW,342,4.0,4.0,62,0.00,,SCT026,0.00,VWS V14.01,2013-05-16 17:31:00,
2013-05-16 12:36:00,84.8,69.9,29.81,WSW,248,0.0,4.0,61,0.00,,SCT026,0.00,VWS V14.01,2013-05-16 17:36:00,
2013-05-16 12:40:00,84.6,69.7,29.82,East,80,0.0,5.0,61,0.00,,FEW045,0.00,VWS V14.01,2013-05-16 17:40:00,
2013-05-16 12:41:00,85.2,69.8,29.81,SSE,165,0.0,2.0,60,0.00,,SCT026,0.00,VWS V14.01,2013-05-16 17:41:00,
2013-05-16 12:46:00,85.6,71.6,29.81,North,360,0.0,2.0,63,0.00,,SCT026,0.00,VWS V14.01,2013-05-16 17:46:00,
2013-05-16 12:50:00,85.0,70.1,29.81,SSE,165,0.0,4.0,61,0.00,,FEW045,0.00,VWS V14.01,2013-05-16 17:50:00,
2013-05-16 12:51:00,86.0,70.0,29.81,SW,215,1.0,4.0,59,0.00,,SCT026,0.00,VWS V14.01,2013-05-16 17:51:00,
2013-05-16 12:56:00,86.5,71.0,29.81,West,270,0.0,4.0,60,0.00,,SCT026,0.00,VWS V14.01,2013-05-16 17:56:00,
2013-05-16 13:00:00,85.6,70.1,29.81,North,360,0.0,3.0,60,0.00,,FEW045,0.00,VWS V14.01,2013-05-16 18:00:00,
2013-05-16 13:01:00,86.7,71.7,29.80,SW,227,0.0,3.0,61,0.00,,FEW030,0.00,VWS V14.01,2013-05-16 18:01:00,
2013-05-16 13:06:00,87.1,72.0,29.80,North,10,0.0,3.0,61,0.00,,FEW030,0.00,VWS V14.01,2013-05-16 18:06:00,
2013-05-16 13:10:00,86.5,71.0,29.81,West,269,1.0,4.0,60,0.00,,FEW045,0.00,VWS V14.01,2013-05-16 18:10:00,
2013-05-16 13:11:00,87.5,70.9,29.80,South,186,0.0,4.0,58,0.00,,FEW030,0.00,VWS V14.01,2013-05-16 18:11:00,
2013-05-16 13:16:00,87.7,70.6,29.80,NNW,333,0.0,4.0,57,0.00,,FEW030,0.00,VWS V14.01,2013-05-16 18:16:00,
2013-05-16 13:20:00,87.1,71.0,29.80,North,10,0.0,3.0,59,0.00,,FEW045,0.00,VWS V14.01,2013-05-16 18:20:00,
2013-05-16 13:21:00,87.7,72.6,29.80,SE,134,0.0,4.0,61,0.00,,FEW030,0.00,VWS V14.01,2013-05-16 18:21:00,
2013-05-16 13:26:00,87.9,70.8,29.80,SSE,157,0.0,4.0,57,0.00,,FEW030,0.00,VWS V14.01,2013-05-16 18:26:00,
2013-05-16 13:30:00,87.7,70.6,29.80,NNW,337,4.0,5.0,57,0.00,,FEW045,0.00,VWS V14.01,2013-05-16 18:30:00,
2013-05-16 13:31:00,88.1,69.9,29.79,North,5,0.0,4.0,55,0.00,,FEW030,0.00,VWS V14.01,2013-05-16 18:31:00,
2013-05-16 13:36:00,88.3,71.7,29.79,SSW,201,0.0,4.0,58,0.00,,FEW030,0.00,VWS V14.01,2013-05-16 18:36:00,
2013-05-16 13:40:00,87.9,72.3,29.80,SSE,157,2.0,4.0,60,0.00,,FEW045,0.00,VWS V14.01,2013-05-16 18:40:00,
2013-05-16 13:41:00,88.3,70.1,29.79,WNW,303,3.0,5.0,55,0.00,,FEW030,0.00,VWS V14.01,2013-05-16 18:41:00,
2013-05-16 13:46:00,88.5,70.3,29.78,North,351,1.0,5.0,55,0.00,,FEW030,0.00,VWS V14.01,2013-05-16 18:46:00,
2013-05-16 13:50:00,88.3,72.7,29.79,WNW,302,2.0,4.0,60,0.00,,FEW045,0.00,VWS V14.01,2013-05-16 18:50:00,
2013-05-16 13:51:00,88.8,71.1,29.78,NNW,331,0.0,1.0,56,0.00,,FEW030,0.00,VWS V14.01,2013-05-16 18:51:00,
2013-05-16 13:56:00,89.2,70.4,29.78,SSW,208,0.0,7.0,54,0.00,,FEW030,0.00,VWS V14.01,2013-05-16 18:56:00,
2013-05-16 14:00:00,88.5,70.8,29.78,NNW,331,0.0,5.0,56,0.00,,FEW045,0.00,VWS V14.01,2013-05-16 19:00:00,
2013-05-16 14:01:00,89.2,70.9,29.78,NNW,333,0.0,5.0,55,0.00,,FEW030,0.00,VWS V14.01,2013-05-16 19:01:00,
2013-05-16 14:06:00,89.4,71.7,29.78,SSE,161,0.0,5.0,56,0.00,,FEW034,0.00,VWS V14.01,2013-05-16 19:06:00,
2013-05-16 14:10:00,89.2,69.8,29.78,SSW,207,1.0,7.0,53,0.00,,FEW045,0.00,VWS V14.01,2013-05-16 19:10:00,
2013-05-16 14:11:00,89.8,70.9,29.78,NNW,339,0.0,4.0,54,0.00,,FEW034,0.00,VWS V14.01,2013-05-16 19:11:00,
2013-05-16 14:16:00,90.0,70.6,29.78,WSW,242,0.0,4.0,53,0.00,,FEW034,0.00,VWS V14.01,2013-05-16 19:16:00,
2013-05-16 14:20:00,89.6,71.8,29.78,SSE,161,1.0,5.0,56,0.00,,FEW045,0.00,VWS V14.01,2013-05-16 19:20:00,
2013-05-16 14:21:00,90.0,70.0,29.78,NW,308,0.0,3.0,52,0.00,,FEW034,0.00,VWS V14.01,2013-05-16 19:21:00,
2013-05-16 14:27:00,90.2,70.8,29.78,SW,217,0.0,3.0,53,0.00,,FEW034,0.00,VWS V14.01,2013-05-16 19:27:00,
2013-05-16 14:30:00,90.0,69.5,29.78,WNW,293,0.0,4.0,51,0.00,,FEW045,0.00,VWS V14.01,2013-05-16 19:30:00,
2013-05-16 14:32:00,90.5,72.1,29.78,SSW,211,0.0,4.0,55,0.00,,FEW034,0.00,VWS V14.01,2013-05-16 19:32:00,
2013-05-16 14:37:00,90.5,69.3,29.78,NE,36,0.0,4.0,50,0.00,,FEW034,0.00,VWS V14.01,2013-05-16 19:37:00,
2013-05-16 14:40:00,90.2,69.6,29.78,SW,217,0.0,3.0,51,0.00,,FEW045,0.00,VWS V14.01,2013-05-16 19:40:00,
2013-05-16 14:42:00,90.5,70.5,29.78,NE,37,3.0,3.0,52,0.00,,FEW034,0.00,VWS V14.01,2013-05-16 19:42:00,
2013-05-16 14:47:00,90.0,68.3,29.77,NNW,336,0.0,4.0,49,0.00,,FEW034,0.00,VWS V14.01,2013-05-16 19:47:00,
2013-05-16 14:50:00,90.5,69.3,29.78,NE,37,0.0,4.0,50,0.00,,FEW045,0.00,VWS V14.01,2013-05-16 19:50:00,
2013-05-16 14:52:00,89.8,68.7,29.77,NNE,17,0.0,4.0,50,0.00,,FEW034,0.00,VWS V14.01,2013-05-16 19:52:00,
2013-05-16 14:57:00,90.0,70.0,29.77,NNE,19,0.0,4.0,52,0.00,,FEW034,0.00,VWS V14.01,2013-05-16 19:57:00,
2013-05-16 15:00:00,90.0,68.3,29.77,NNW,336,0.0,4.0,49,0.00,,FEW045,0.00,VWS V14.01,2013-05-16 20:00:00,
2013-05-16 15:02:00,90.2,69.1,29.76,NNE,32,1.0,2.0,50,0.00,,FEW034,0.00,VWS V14.01,2013-05-16 20:02:00,
2013-05-16 15:07:00,90.5,68.2,29.76,NNW,338,0.0,4.0,48,0.00,,CLR,0.00,VWS V14.01,2013-05-16 20:07:00,
2013-05-16 15:10:00,90.0,71.1,29.77,NNE,19,1.0,4.0,54,0.00,,FEW045,0.00,VWS V14.01,2013-05-16 20:10:00,
2013-05-16 15:12:00,90.7,71.8,29.76,NNW,338,0.0,1.0,54,0.00,,CLR,0.00,VWS V14.01,2013-05-16 20:12:00,
2013-05-16 15:17:00,90.9,69.1,29.76,NNW,334,1.0,4.0,49,0.00,,CLR,0.00,VWS V14.01,2013-05-16 20:17:00,
2013-05-16 15:20:00,90.5,68.2,29.76,NNW,338,0.0,4.0,48,0.00,,FEW045,0.00,VWS V14.01,2013-05-16 20:20:00,
2013-05-16 15:22:00,91.3,69.5,29.76,NNW,334,0.0,3.0,49,0.00,,CLR,0.00,VWS V14.01,2013-05-16 20:22:00,
2013-05-16 15:27:00,91.6,69.8,29.76,NNW,347,1.0,3.0,49,0.00,,CLR,0.00,VWS V14.01,2013-05-16 20:27:00,
2013-05-16 15:30:00,90.9,69.1,29.76,NNW,334,0.0,4.0,49,0.00,,FEW045,0.00,VWS V14.01,2013-05-16 20:30:00,
2013-05-16 15:32:00,92.0,70.7,29.75,NNW,347,0.0,1.0,50,0.00,,CLR,0.00,VWS V14.01,2013-05-16 20:32:00,
2013-05-16 15:37:00,92.2,70.3,29.75,NNW,347,1.0,3.0,49,0.00,,CLR,0.00,VWS V14.01,2013-05-16 20:37:00,
2013-05-16 15:40:00,91.8,69.9,29.76,NNW,347,0.0,3.0,49,0.00,,FEW045,0.00,VWS V14.01,2013-05-16 20:40:00,
2013-05-16 15:42:00,92.2,69.7,29.75,NNW,347,0.0,1.0,48,0.00,,CLR,0.00,VWS V14.01,2013-05-16 20:42:00,
2013-05-16 15:47:00,92.4,70.5,29.75,SSE,167,0.0,4.0,49,0.00,,CLR,0.00,VWS V14.01,2013-05-16 20:47:00,
2013-05-16 15:50:00,92.2,70.3,29.75,NNW,347,0.0,3.0,49,0.00,,FEW045,0.00,VWS V14.01,2013-05-16 20:50:00,
2013-05-16 15:52:00,92.2,68.4,29.75,SW,229,0.0,2.0,46,0.00,,CLR,0.00,VWS V14.01,2013-05-16 20:52:00,
2013-05-16 15:57:00,92.2,70.3,29.75,SW,228,0.0,2.0,49,0.00,,CLR,0.00,VWS V14.01,2013-05-16 20:57:00,
2013-05-16 16:00:00,92.4,70.5,29.75,SSE,167,0.0,4.0,49,0.00,,FEW045,0.00,VWS V14.01,2013-05-16 21:00:00,
2013-05-16 16:02:00,92.0,67.0,29.74,SW,223,0.0,2.0,44,0.00,,CLR,0.00,VWS V14.01,2013-05-16 21:02:00,
2013-05-16 16:07:00,92.0,70.1,29.74,SW,223,0.0,2.0,49,0.00,,CLR,0.00,VWS V14.01,2013-05-16 21:07:00,
2013-05-16 16:10:00,92.2,70.3,29.75,SW,228,2.0,2.0,49,0.00,,FEW045,0.00,VWS V14.01,2013-05-16 21:10:00,
2013-05-16 16:12:00,91.8,69.9,29.74,SW,222,0.0,2.0,49,0.00,,CLR,0.00,VWS V14.01,2013-05-16 21:12:00,
2013-05-16 16:17:00,91.6,68.5,29.74,SW,236,0.0,3.0,47,0.00,,CLR,0.00,VWS V14.01,2013-05-16 21:17:00,
2013-05-16 16:20:00,92.0,69.5,29.74,SW,223,0.0,2.0,48,0.00,,FEW045,0.00,VWS V14.01,2013-05-16 21:20:00,
2013-05-16 16:22:00,91.1,70.5,29.74,West,261,0.0,1.0,51,0.00,,CLR,0.00,VWS V14.01,2013-05-16 21:22:00,
2013-05-16 16:27:00,91.1,69.3,29.74,WNW,292,0.0,3.0,49,0.00,,CLR,0.00,VWS V14.01,2013-05-16 21:27:00,
2013-05-16 16:30:00,91.3,68.9,29.74,NW,305,1.0,3.0,48,0.00,,FEW045,0.00,VWS V14.01,2013-05-16 21:30:00,
2013-05-16 16:32:00,90.9,69.7,29.73,SSW,213,0.0,2.0,50,0.00,,CLR,0.00,VWS V14.01,2013-05-16 21:32:00,
2013-05-16 16:37:00,90.9,69.7,29.73,SSW,213,1.0,2.0,50,0.00,,CLR,0.00,VWS V14.01,2013-05-16 21:37:00,
2013-05-16 16:40:00,90.9,69.1,29.74,SSW,213,1.0,4.0,49,0.00,,FEW045,0.00,VWS V14.01,2013-05-16 21:40:00,
2013-05-16 16:42:00,90.9,69.1,29.73,South,171,0.0,3.0,49,0.00,,CLR,0.00,VWS V14.01,2013-05-16 21:42:00,
2013-05-16 16:47:00,90.9,68.5,29.72,WSW,242,0.0,3.0,48,0.00,,CLR,0.00,VWS V14.01,2013-05-16 21:47:00,
2013-05-16 16:50:00,90.9,69.7,29.73,SSW,213,1.0,3.0,50,0.00,,FEW045,0.00,VWS V14.01,2013-05-16 21:50:00,
2013-05-16 16:52:00,90.9,67.9,29.72,WSW,243,0.0,2.0,47,0.00,,CLR,0.00,VWS V14.01,2013-05-16 21:52:00,
2013-05-16 16:57:00,91.1,69.3,29.72,WSW,243,0.0,2.0,49,0.00,,CLR,0.00,VWS V14.01,2013-05-16 21:57:00,
2013-05-16 17:00:00,90.9,67.9,29.72,WSW,243,1.0,3.0,47,0.00,,FEW045,0.00,VWS V14.01,2013-05-16 22:00:00,
2013-05-16 17:02:00,91.1,68.7,29.72,West,266,0.0,2.0,48,0.00,,FEW055,0.00,VWS V14.01,2013-05-16 22:02:00,
2013-05-16 17:07:00,91.3,68.9,29.72,West,263,0.0,2.0,48,0.00,,FEW055,0.00,VWS V14.01,2013-05-16 22:07:00,
2013-05-16 17:10:00,91.1,69.3,29.72,WSW,243,1.0,2.0,49,0.00,,FEW045,0.00,VWS V14.01,2013-05-16 22:10:00,
2013-05-16 17:12:00,91.3,69.5,29.72,West,261,0.0,1.0,49,0.00,,FEW055,0.00,VWS V14.01,2013-05-16 22:12:00,
2013-05-16 17:17:00,91.3,68.9,29.72,West,263,0.0,1.0,48,0.00,,FEW055,0.00,VWS V14.01,2013-05-16 22:17:00,
2013-05-16 17:20:00,91.3,68.9,29.72,West,263,0.0,2.0,48,0.00,,FEW045,0.00,VWS V14.01,2013-05-16 22:20:00,
2013-05-16 17:22:00,91.6,69.2,29.72,North,355,0.0,2.0,48,0.00,,FEW055,0.00,VWS V14.01,2013-05-16 22:22:00,
2013-05-16 17:27:00,91.6,68.5,29.72,North,355,0.0,2.0,47,0.00,,FEW055,0.00,VWS V14.01,2013-05-16 22:27:00,
2013-05-16 17:30:00,91.3,68.9,29.72,West,263,0.0,1.0,48,0.00,,FEW045,0.00,VWS V14.01,2013-05-16 22:30:00,
2013-05-16 17:32:00,91.3,69.5,29.71,North,351,0.0,3.0,49,0.00,,FEW055,0.00,VWS V14.01,2013-05-16 22:32:00,
2013-05-16 17:37:00,91.3,67.6,29.71,NNW,345,0.0,3.0,46,0.00,,FEW055,0.00,VWS V14.01,2013-05-16 22:37:00,
2013-05-16 17:40:00,91.6,68.5,29.72,North,355,0.0,2.0,47,0.00,,FEW045,0.00,VWS V14.01,2013-05-16 22:40:00,
2013-05-16 17:42:00,91.3,69.5,29.71,NNW,345,0.0,2.0,49,0.00,,FEW055,0.00,VWS V14.01,2013-05-16 22:42:00,
2013-05-16 17:47:00,91.1,67.5,29.70,NNW,345,0.0,2.0,46,0.00,,FEW055,0.00,VWS V14.01,2013-05-16 22:47:00,
2013-05-16 17:50:00,91.3,67.6,29.71,NNW,345,0.0,3.0,46,0.00,,FEW045,0.00,VWS V14.01,2013-05-16 22:50:00,
2013-05-16 17:52:00,91.1,68.7,29.70,NNW,345,0.0,2.0,48,0.00,,FEW055,0.00,VWS V14.01,2013-05-16 22:52:00,
2013-05-16 17:57:00,90.9,68.5,29.70,NNW,345,0.0,0.0,48,0.00,,FEW055,0.00,VWS V14.01,2013-05-16 22:57:00,
2013-05-16 18:00:00,91.1,67.5,29.70,NNW,345,0.0,2.0,46,0.00,,FEW045,0.00,VWS V14.01,2013-05-16 23:00:00,
2013-05-16 18:02:00,90.7,66.5,29.70,NNW,345,0.0,0.0,45,0.00,,CLR,0.00,VWS V14.01,2013-05-16 23:02:00,
2013-05-16 18:07:00,90.7,68.3,29.70,NNW,345,0.0,1.0,48,0.00,,CLR,0.00,VWS V14.01,2013-05-16 23:07:00,
2013-05-16 18:10:00,90.9,68.5,29.70,NNW,345,0.0,2.0,48,0.00,,FEW045,0.00,VWS V14.01,2013-05-16 23:10:00,
2013-05-16 18:12:00,90.7,68.3,29.70,NNW,345,0.0,1.0,48,0.00,,CLR,0.00,VWS V14.01,2013-05-16 23:12:00,
2013-05-16 18:17:00,90.5,69.9,29.70,NNW,345,0.0,0.0,51,0.00,,CLR,0.00,VWS V14.01,2013-05-16 23:17:00,
2013-05-16 18:20:00,90.7,68.3,29.70,NNW,345,0.0,1.0,48,0.00,,FEW045,0.00,VWS V14.01,2013-05-16 23:20:00,
2013-05-16 18:22:00,90.5,71.6,29.70,NNW,345,0.0,0.0,54,0.00,,CLR,0.00,VWS V14.01,2013-05-16 23:22:00,
2013-05-16 18:27:00,90.0,71.7,29.70,NNW,345,0.0,0.0,55,0.00,,CLR,0.00,VWS V14.01,2013-05-16 23:27:00,
2013-05-16 18:30:00,90.5,69.9,29.70,NNW,345,0.0,1.0,51,0.00,,FEW045,0.00,VWS V14.01,2013-05-16 23:30:00,
2013-05-16 18:32:00,89.6,71.3,29.71,NNW,345,0.0,1.0,55,0.00,,CLR,0.00,VWS V14.01,2013-05-16 23:32:00,
2013-05-16 18:37:00,89.0,71.3,29.71,NNW,346,1.0,1.0,56,0.00,,CLR,0.00,VWS V14.01,2013-05-16 23:37:00,
2013-05-16 18:40:00,90.0,71.7,29.70,NNW,345,0.0,3.0,55,0.00,,FEW045,0.00,VWS V14.01,2013-05-16 23:40:00,
2013-05-16 18:42:00,88.5,71.3,29.71,NNW,346,1.0,1.0,57,0.00,,CLR,0.00,VWS V14.01,2013-05-16 23:42:00,
2013-05-16 18:47:00,88.1,71.5,29.71,NNW,346,0.0,0.0,58,0.00,,CLR,0.00,VWS V14.01,2013-05-16 23:47:00,
2013-05-16 18:50:00,89.0,71.3,29.71,NNW,346,0.0,2.0,56,0.00,,FEW045,0.00,VWS V14.01,2013-05-16 23:50:00,
2013-05-16 18:52:00,87.7,71.1,29.71,SSW,202,0.0,4.0,58,0.00,,CLR,0.00,VWS V14.01,2013-05-16 23:52:00,
2013-05-16 18:57:00,87.5,71.4,29.71,SW,218,0.0,0.0,59,0.00,,CLR,0.00,VWS V14.01,2013-05-16 23:57:00,
2013-05-16 19:00:00,88.1,71.5,29.71,NNW,346,0.0,2.0,58,0.00,,FEW045,0.00,VWS V14.01,2013-05-17 00:00:00,
2013-05-16 19:02:00,87.3,71.7,29.71,SW,219,0.0,2.0,60,0.00,,CLR,0.00,VWS V14.01,2013-05-17 00:02:00,
2013-05-16 19:07:00,86.9,71.3,29.71,SW,220,0.0,0.0,60,0.00,,CLR,0.00,VWS V14.01,2013-05-17 00:07:00,
2013-05-16 19:10:00,87.5,71.4,29.71,SW,218,0.0,4.0,59,0.00,,FEW045,0.00,VWS V14.01,2013-05-17 00:10:00,
2013-05-16 19:12:00,86.5,71.5,29.71,SW,221,0.0,1.0,61,0.00,,CLR,0.00,VWS V14.01,2013-05-17 00:12:00,
2013-05-16 19:17:00,86.0,71.0,29.72,WNW,296,0.0,0.0,61,0.00,,CLR,0.00,VWS V14.01,2013-05-17 00:17:00,
2013-05-16 19:20:00,86.9,71.3,29.71,SW,220,0.0,2.0,60,0.00,,FEW045,0.00,VWS V14.01,2013-05-17 00:20:00,
2013-05-16 19:22:00,85.8,71.3,29.72,WNW,300,0.0,1.0,62,0.00,,CLR,0.00,VWS V14.01,2013-05-17 00:22:00,
2013-05-16 19:27:00,85.4,71.4,29.72,WNW,300,0.0,0.0,63,0.00,,CLR,0.00,VWS V14.01,2013-05-17 00:27:00,
2013-05-16 19:30:00,86.0,71.0,29.72,WNW,296,0.0,2.0,61,0.00,,FEW045,0.00,VWS V14.01,2013-05-17 00:30:00,
2013-05-16 19:32:00,85.2,71.2,29.72,NW,304,0.0,1.0,63,0.00,,CLR,0.00,VWS V14.01,2013-05-17 00:32:00,
2013-05-16 19:37:00,84.8,71.3,29.72,NW,304,0.0,0.0,64,0.00,,CLR,0.00,VWS V14.01,2013-05-17 00:37:00,
2013-05-16 19:40:00,85.4,71.4,29.72,WNW,300,0.0,1.0,63,0.00,,FEW045,0.00,VWS V14.01,2013-05-17 00:40:00,
2013-05-16 19:42:00,84.4,71.4,29.72,NW,304,0.0,0.0,65,0.00,,CLR,0.00,VWS V14.01,2013-05-17 00:42:00,
2013-05-16 19:47:00,84.2,71.2,29.72,NW,304,0.0,0.0,65,0.00,,CLR,0.00,VWS V14.01,2013-05-17 00:47:00,
2013-05-16 19:50:00,84.8,71.3,29.72,NW,304,0.0,1.0,64,0.00,,FEW045,0.00,VWS V14.01,2013-05-17 00:50:00,
2013-05-16 19:52:00,84.0,71.4,29.72,WSW,256,0.0,4.0,66,0.00,,CLR,0.00,VWS V14.01,2013-05-17 00:52:00,
2013-05-16 19:57:00,83.6,71.1,29.72,WSW,256,0.0,0.0,66,0.00,,CLR,0.00,VWS V14.01,2013-05-17 00:57:00,
2013-05-16 20:00:00,84.2,71.2,29.72,NW,304,0.0,0.0,65,0.00,,FEW045,0.00,VWS V14.01,2013-05-17 01:00:00,
2013-05-16 20:02:00,83.5,71.4,29.73,WSW,256,0.0,0.0,67,0.00,,CLR,0.00,VWS V14.01,2013-05-17 01:02:00,
2013-05-16 20:07:00,83.1,71.4,29.73,WNW,298,0.0,0.0,68,0.00,,CLR,0.00,VWS V14.01,2013-05-17 01:07:00,
2013-05-16 20:10:00,83.6,71.1,29.72,WSW,256,0.0,4.0,66,0.00,,FEW045,0.00,VWS V14.01,2013-05-17 01:10:00,
2013-05-16 20:12:00,82.7,71.1,29.73,NW,304,0.0,1.0,68,0.00,,CLR,0.00,VWS V14.01,2013-05-17 01:12:00,
2013-05-16 20:17:00,82.3,71.1,29.74,SW,230,0.0,0.0,69,0.00,,CLR,0.00,VWS V14.01,2013-05-17 01:17:00,
2013-05-16 20:20:00,83.1,71.4,29.73,WNW,298,0.0,2.0,68,0.00,,FEW045,0.00,VWS V14.01,2013-05-17 01:20:00,
2013-05-16 20:22:00,81.9,71.2,29.74,SW,233,0.0,1.0,70,0.00,,CLR,0.00,VWS V14.01,2013-05-17 01:22:00,
2013-05-16 20:27:00,81.7,71.0,29.74,SW,233,0.0,0.0,70,0.00,,CLR,0.00,VWS V14.01,2013-05-17 01:27:00,
2013-05-16 20:30:00,82.3,71.1,29.74,SW,230,0.0,2.0,69,0.00,,FEW045,0.00,VWS V14.01,2013-05-17 01:30:00,
2013-05-16 20:32:00,81.3,71.0,29.74,SW,235,0.0,1.0,71,0.00,,CLR,0.00,VWS V14.01,2013-05-17 01:32:00,
2013-05-16 20:37:00,80.9,71.0,29.74,SW,235,0.0,0.0,72,0.00,,CLR,0.00,VWS V14.01,2013-05-17 01:37:00,
2013-05-16 20:40:00,81.7,71.0,29.74,SW,233,0.0,1.0,70,0.00,,FEW045,0.00,VWS V14.01,2013-05-17 01:40:00,
2013-05-16 20:42:00,80.6,70.8,29.74,SW,235,0.0,1.0,72,0.00,,CLR,0.00,VWS V14.01,2013-05-17 01:42:00,
2013-05-16 20:47:00,80.4,71.0,29.75,SW,235,0.0,0.0,73,0.00,,CLR,0.00,VWS V14.01,2013-05-17 01:47:00,
2013-05-16 20:50:00,80.9,71.0,29.74,SW,235,0.0,1.0,72,0.00,,FEW045,0.00,VWS V14.01,2013-05-17 01:50:00,
2013-05-16 20:52:00,80.0,71.0,29.75,SW,236,0.0,1.0,74,0.00,,CLR,0.00,VWS V14.01,2013-05-17 01:52:00,
2013-05-16 20:57:00,79.8,70.8,29.75,SW,236,0.0,0.0,74,0.00,,CLR,0.00,VWS V14.01,2013-05-17 01:57:00,
2013-05-16 21:00:00,80.4,71.0,29.75,SW,235,0.0,1.0,73,0.00,,FEW045,0.00,VWS V14.01,2013-05-17 02:00:00,
2013-05-16 21:02:00,79.6,71.0,29.76,WSW,239,0.0,1.0,75,0.00,,CLR,0.00,VWS V14.01,2013-05-17 02:02:00,
2013-05-16 21:07:00,79.3,70.7,29.76,WSW,239,0.0,0.0,75,0.00,,CLR,0.00,VWS V14.01,2013-05-17 02:07:00,
2013-05-16 21:10:00,79.8,70.8,29.75,SW,236,0.0,1.0,74,0.00,,FEW045,0.00,VWS V14.01,2013-05-17 02:10:00,
2013-05-16 21:12:00,79.1,70.9,29.76,WSW,243,0.0,1.0,76,0.00,,CLR,0.00,VWS V14.01,2013-05-17 02:12:00,
2013-05-16 21:17:00,78.9,70.7,29.76,WSW,243,0.0,0.0,76,0.00,,CLR,0.00,VWS V14.01,2013-05-17 02:17:00,
2013-05-16 21:20:00,79.3,70.7,29.76,WSW,239,0.0,1.0,75,0.00,,FEW045,0.00,VWS V14.01,2013-05-17 02:20:00,
2013-05-16 21:22:00,78.7,70.9,29.76,WSW,243,0.0,0.0,77,0.00,,CLR,0.00,VWS V14.01,2013-05-17 02:22:00,
2013-05-16 21:27:00,78.5,70.7,29.76,WSW,243,0.0,0.0,77,0.00,,CLR,0.00,VWS V14.01,2013-05-17 02:27:00,
2013-05-16 21:30:00,78.9,70.7,29.76,WSW,243,0.0,1.0,76,0.00,,FEW045,0.00,VWS V14.01,2013-05-17 02:30:00,
2013-05-16 21:32:00,78.3,70.5,29.76,WSW,243,0.0,0.0,77,0.00,,CLR,0.00,VWS V14.01,2013-05-17 02:32:00,
2013-05-16 21:37:00,78.1,70.7,29.76,NW,314,0.0,0.0,78,0.00,,CLR,0.00,VWS V14.01,2013-05-17 02:37:00,
2013-05-16 21:40:00,78.5,70.7,29.76,WSW,243,0.0,0.0,77,0.00,,FEW045,0.00,VWS V14.01,2013-05-17 02:40:00,
2013-05-16 21:42:00,78.0,70.6,29.76,NW,314,0.0,0.0,78,0.00,,CLR,0.00,VWS V14.01,2013-05-17 02:42:00,
2013-05-16 21:47:00,77.6,70.6,29.77,NW,319,0.0,0.0,79,0.00,,CLR,0.00,VWS V14.01,2013-05-17 02:47:00,
2013-05-16 21:50:00,78.1,70.7,29.76,NW,314,0.0,2.0,78,0.00,,FEW045,0.00,VWS V14.01,2013-05-17 02:50:00,
2013-05-16 21:52:00,77.6,70.6,29.77,NW,312,0.0,2.0,79,0.00,,BKN020,0.00,VWS V14.01,2013-05-17 02:52:00,
2013-05-16 21:57:00,77.4,70.8,29.77,NW,312,0.0,2.0,80,0.00,,BKN020,0.00,VWS V14.01,2013-05-17 02:57:00,
2013-05-16 22:00:00,77.8,70.8,29.77,NW,319,0.0,0.0,79,0.00,,FEW045,0.00,VWS V14.01,2013-05-17 03:00:00,
2013-05-16 22:02:00,77.2,70.6,29.78,NW,312,0.0,1.0,80,0.00,,BKN020,0.00,VWS V14.01,2013-05-17 03:02:00,
2013-05-16 22:07:00,77.1,70.5,29.78,NW,312,0.0,1.0,80,0.00,,BKN020,0.00,VWS V14.01,2013-05-17 03:07:00,
2013-05-16 22:10:00,77.4,70.8,29.77,NW,312,0.0,2.0,80,0.00,,FEW045,0.00,VWS V14.01,2013-05-17 03:10:00,
2013-05-16 22:12:00,77.1,70.8,29.78,NW,312,0.0,0.0,81,0.00,,BKN020,0.00,VWS V14.01,2013-05-17 03:12:00,
2013-05-16 22:17:00,76.9,70.6,29.78,NW,312,0.0,4.0,81,0.00,,BKN020,0.00,VWS V14.01,2013-05-17 03:17:00,
2013-05-16 22:20:00,77.1,70.5,29.78,NW,312,0.0,1.0,80,0.00,,FEW045,0.00,VWS V14.01,2013-05-17 03:20:00,
2013-05-16 22:22:00,76.9,70.6,29.78,NW,312,0.0,0.0,81,0.00,,BKN020,0.00,VWS V14.01,2013-05-17 03:22:00,
2013-05-16 22:27:00,76.7,70.8,29.78,NW,312,1.0,1.0,82,0.00,,BKN020,0.00,VWS V14.01,2013-05-17 03:27:00,
2013-05-16 22:30:00,76.9,70.6,29.78,NW,312,0.0,4.0,81,0.00,,FEW045,0.00,VWS V14.01,2013-05-17 03:30:00,
2013-05-16 22:32:00,76.7,70.8,29.78,NW,312,0.0,2.0,82,0.00,,OVC019,0.00,VWS V14.01,2013-05-17 03:32:00,
2013-05-16 22:37:00,76.7,70.8,29.78,NW,312,0.0,2.0,82,0.00,,OVC019,0.00,VWS V14.01,2013-05-17 03:37:00,
2013-05-16 22:40:00,76.7,70.8,29.78,NW,312,1.0,1.0,82,0.00,,FEW045,0.00,VWS V14.01,2013-05-17 03:40:00,
2013-05-16 22:42:00,76.7,70.8,29.78,NW,312,0.0,0.0,82,0.00,,OVC019,0.00,VWS V14.01,2013-05-17 03:42:00,
2013-05-16 22:47:00,76.5,70.6,29.79,NW,312,0.0,2.0,82,0.00,,OVC019,0.00,VWS V14.01,2013-05-17 03:47:00,
2013-05-16 22:50:00,76.7,70.8,29.78,NW,312,0.0,2.0,82,0.00,,FEW045,0.00,VWS V14.01,2013-05-17 03:50:00,
2013-05-16 22:52:00,76.5,70.6,29.79,NW,312,0.0,0.0,82,0.00,,OVC019,0.00,VWS V14.01,2013-05-17 03:52:00,
2013-05-16 22:57:00,76.5,71.0,29.79,NW,312,0.0,0.0,83,0.00,,OVC019,0.00,VWS V14.01,2013-05-17 03:57:00,
2013-05-16 23:00:00,76.5,70.6,29.79,NW,312,0.0,2.0,82,0.00,,FEW045,0.00,VWS V14.01,2013-05-17 04:00:00,
2013-05-16 23:01:00,76.3,70.8,29.79,NW,312,0.0,0.0,83,0.00,,OVC019,0.00,VWS V14.01,2013-05-17 04:01:00,
2013-05-16 23:06:00,76.3,70.8,29.80,NW,312,0.0,0.0,83,0.00,,OVC014,0.00,VWS V14.01,2013-05-17 04:06:00,
2013-05-16 23:10:00,76.5,71.0,29.79,NW,312,0.0,0.0,83,0.00,,FEW045,0.00,VWS V14.01,2013-05-17 04:10:00,
2013-05-16 23:11:00,76.3,70.8,29.80,NW,312,0.0,1.0,83,0.00,,OVC014,0.00,VWS V14.01,2013-05-17 04:11:00,
2013-05-16 23:16:00,76.3,70.8,29.80,NW,312,0.0,1.0,83,0.00,,OVC014,0.00,VWS V14.01,2013-05-17 04:16:00,
2013-05-16 23:20:00,76.3,70.8,29.80,NW,312,0.0,0.0,83,0.00,,FEW045,0.00,VWS V14.01,2013-05-17 04:20:00,
2013-05-16 23:21:00,76.2,70.7,29.79,North,360,0.0,4.0,83,0.00,,OVC014,0.00,VWS V14.01,2013-05-17 04:21:00,
2013-05-16 23:26:00,76.2,70.7,29.79,North,360,0.0,4.0,83,0.00,,OVC014,0.00,VWS V14.01,2013-05-17 04:26:00,
2013-05-16 23:30:00,76.2,70.7,29.79,NW,312,0.0,1.0,83,0.00,,FEW045,0.00,VWS V14.01,2013-05-17 04:30:00,
2013-05-16 23:31:00,76.2,70.7,29.79,NW,307,0.0,0.0,83,0.00,,OVC014,0.00,VWS V14.01,2013-05-17 04:31:00,
2013-05-16 23:36:00,76.0,70.5,29.79,NW,308,0.0,0.0,83,0.00,,OVC014,0.00,VWS V14.01,2013-05-17 04:36:00,
2013-05-16 23:40:00,76.2,70.7,29.79,NW,308,0.0,4.0,83,0.00,,FEW045,0.00,VWS V14.01,2013-05-17 04:40:00,
2013-05-16 23:41:00,76.0,70.5,29.79,NW,308,0.0,0.0,83,0.00,,OVC014,0.00,VWS V14.01,2013-05-17 04:41:00,
2013-05-16 23:46:00,76.0,70.5,29.79,NW,306,0.0,4.0,83,0.00,,OVC014,0.00,VWS V14.01,2013-05-17 04:46:00,
2013-05-16 23:50:00,76.0,70.5,29.79,NW,308,0.0,0.0,83,0.00,,FEW045,0.00,VWS V14.01,2013-05-17 04:50:00,
2013-05-16 23:51:00,76.0,70.8,29.80,NW,306,0.0,0.0,84,0.00,,OVC014,0.00,VWS V14.01,2013-05-17 04:51:00,
2013-05-16 23:56:00,76.0,70.8,29.80,NW,306,0.0,1.0,84,0.00,,OVC014,0.00,VWS V14.01,2013-05-17 04:56:00,